Date String (YYYY-MM-DD hh:mm:ss) UTC,Instrument flags,Ambient pressure (hPa),Sample flow (lpm),Bypass flow (lpm),Sample temperature (°C),Ambient temperature (°C),ASC tube jacket temperature (°C),LED temperature (°C),Box temperature (°C),Sample RH (%),Span deviation,Mass concentration (μg/m³),Mass concentration (μg/m³),Mass concentration (μg/m³)
DateTimeUTC,F1_M11,P_M11,Q1_M11,Q2_M11,T1_M11,T2_M11,T3_M11,T4_M11,T5_M11,U1_M11,ZSPAN_M11,X0_M11,X2_M11,X1_M11
2022-11-06 04:00:00,,0814.6,4.99,0.00,25.1,23.8,00.0,33.9,27.0,14.6,0000.0,0001.30,0000.72,0000.50
2022-11-06 04:01:00,,0814.6,5.00,0.00,25.1,23.7,00.0,33.9,27.0,14.6,0000.0,0001.34,0000.74,0000.51
2022-11-06 04:02:00,,0814.5,5.01,0.00,25.1,23.7,00.0,33.9,27.0,14.6,0000.0,0001.34,0000.74,0000.52
2022-11-06 04:03:00,,0814.5,5.00,0.00,25.1,23.7,00.0,33.9,27.0,14.6,0000.0,0001.46,0000.77,0000.52
2022-11-06 04:04:00,,0815.0,4.99,0.00,25.1,23.8,00.0,33.9,27.0,14.6,0000.0,0001.47,0000.76,0000.52
2022-11-06 04:05:00,,0815.0,5.00,0.00,25.1,23.8,00.0,33.9,27.0,14.5,0000.0,0001.47,0000.77,0000.52
2022-11-06 04:06:00,,0814.9,5.01,0.00,25.2,23.8,00.0,33.9,27.1,14.5,0000.0,0001.47,0000.77,0000.52
2022-11-06 04:07:00,,0815.1,5.00,0.00,25.2,23.8,00.0,33.9,27.1,14.5,0000.0,0001.42,0000.76,0000.52
2022-11-06 04:08:00,,0815.2,4.99,0.00,25.2,23.8,00.0,33.9,27.1,14.5,0000.0,0001.47,0000.78,0000.52
2022-11-06 04:09:00,,0814.9,5.01,0.00,25.2,23.8,00.0,33.9,27.1,14.6,0000.0,0001.30,0000.75,0000.52
2022-11-06 04:10:00,,0814.6,5.01,0.00,25.2,23.8,00.0,33.9,27.0,14.6,0000.0,0001.21,0000.72,0000.51
2022-11-06 04:11:00,,0814.8,5.00,0.00,25.2,23.8,00.0,33.9,27.0,14.6,0000.0,0001.17,0000.70,0000.51
2022-11-06 04:12:00,,0814.7,5.00,0.00,25.2,23.8,00.0,34.0,27.0,14.5,0000.0,0001.10,0000.67,0000.50
2022-11-06 04:13:00,,0814.7,5.00,0.00,25.1,23.7,00.0,34.0,27.0,14.6,0000.0,0001.54,0000.66,0000.50
2022-11-06 04:14:00,,0814.5,5.00,0.00,25.1,23.7,00.0,33.9,27.0,14.8,0000.0,0001.58,0000.63,0000.49
2022-11-06 04:15:00,,0814.7,4.98,0.00,25.1,23.7,00.0,33.9,27.0,14.7,0000.0,0001.60,0000.65,0000.50
2022-11-06 04:16:00,,0814.9,5.02,0.00,25.1,23.7,00.0,33.9,27.0,14.6,0000.0,0001.58,0000.64,0000.49
2022-11-06 04:17:00,,0814.7,5.01,0.00,25.1,23.8,00.0,33.9,27.0,14.6,0000.0,0001.55,0000.62,0000.48
2022-11-06 04:18:00,,0814.7,4.98,0.00,25.1,23.8,00.0,33.9,27.0,14.7,0000.0,0001.58,0000.63,0000.49
2022-11-06 04:19:00,,0815.1,5.01,0.00,25.2,23.8,00.0,33.9,27.0,14.7,0000.0,0001.53,0000.61,0000.49
2022-11-06 04:20:00,,0815.1,5.00,0.00,25.2,23.8,00.0,33.9,27.1,14.8,0000.0,0001.57,0000.63,0000.49
2022-11-06 04:21:00,,0814.7,5.00,0.00,25.2,23.8,00.0,33.9,27.1,14.7,0000.0,0001.60,0000.65,0000.50
2022-11-06 04:22:00,,0814.5,5.00,0.00,25.2,23.9,00.0,34.0,27.1,14.7,0000.0,0001.65,0000.67,0000.49
2022-11-06 04:23:00,,0814.5,5.00,0.00,25.2,23.9,00.0,33.9,27.1,14.8,0000.0,0001.66,0000.68,0000.49
2022-11-06 04:24:00,,0814.8,5.01,0.00,25.2,23.9,00.0,34.0,27.1,14.8,0000.0,0001.17,0000.68,0000.49
2022-11-06 04:25:00,,0814.9,4.99,0.00,25.2,23.9,00.0,34.0,27.1,14.7,0000.0,0000.99,0000.68,0000.49
2022-11-06 04:26:00,,0814.7,5.00,0.00,25.2,23.9,00.0,34.0,27.1,14.7,0000.0,0000.96,0000.66,0000.49
2022-11-06 04:27:00,,0815.0,5.01,0.00,25.2,24.0,00.0,34.0,27.2,14.6,0000.0,0000.96,0000.66,0000.48
2022-11-06 04:28:00,,0815.0,5.00,0.00,25.2,23.9,00.0,34.0,27.1,14.7,0000.0,0000.96,0000.66,0000.48
2022-11-06 04:29:00,,0815.0,4.98,0.00,25.2,23.7,00.0,34.0,27.1,14.6,0000.0,0000.93,0000.64,0000.48
2022-11-06 04:30:00,,0815.0,5.00,0.00,25.2,23.6,00.0,34.0,27.0,14.6,0000.0,0001.00,0000.66,0000.48
2022-11-06 04:31:00,,0814.9,5.00,0.00,25.1,23.6,00.0,34.0,27.0,14.5,0000.0,0001.01,0000.65,0000.47
2022-11-06 04:32:00,,0814.6,5.01,0.00,25.1,23.6,00.0,34.0,27.0,14.6,0000.0,0001.05,0000.64,0000.46
2022-11-06 04:33:00,,0815.0,5.00,0.00,25.2,23.7,00.0,34.0,27.0,14.5,0000.0,0001.02,0000.64,0000.47
2022-11-06 04:34:00,,0815.0,5.00,0.00,25.2,23.7,00.0,34.0,27.1,14.6,0000.0,0001.07,0000.64,0000.47
2022-11-06 04:35:00,,0815.0,4.99,0.00,25.2,23.8,00.0,34.0,27.1,14.6,0000.0,0001.17,0000.67,0000.47
2022-11-06 04:36:00,,0814.8,5.00,0.00,25.2,23.8,00.0,34.0,27.1,14.6,0000.0,0001.17,0000.67,0000.47
2022-11-06 04:37:00,,0815.0,5.00,0.00,25.2,23.8,00.0,34.0,27.1,14.6,0000.0,0001.22,0000.68,0000.46
2022-11-06 04:38:00,,0814.6,5.00,0.00,25.2,23.8,00.0,34.0,27.1,14.6,0000.0,0001.27,0000.70,0000.47
2022-11-06 04:39:00,,0815.1,4.99,0.00,25.2,23.8,00.0,34.0,27.1,14.5,0000.0,0001.28,0000.70,0000.47
2022-11-06 04:40:00,,0814.7,5.00,0.00,25.2,23.9,00.0,34.0,27.1,14.5,0000.0,0001.33,0000.69,0000.46
2022-11-06 04:41:00,,0814.6,5.00,0.00,25.2,23.9,00.0,33.9,27.1,14.5,0000.0,0001.24,0000.65,0000.45
2022-11-06 04:42:00,,0814.8,5.00,0.00,25.2,23.9,00.0,34.0,27.1,14.5,0000.0,0001.21,0000.64,0000.45
2022-11-06 04:43:00,,0815.1,5.00,0.00,25.2,23.9,00.0,34.0,27.1,14.5,0000.0,0001.28,0000.63,0000.45
2022-11-06 04:44:00,,0814.9,5.01,0.00,25.2,24.0,00.0,34.0,27.1,14.6,0000.0,0001.93,0000.65,0000.45
2022-11-06 04:45:00,,0814.9,5.00,0.00,25.2,24.0,00.0,34.0,27.2,14.5,0000.0,0001.92,0000.65,0000.45
2022-11-06 04:46:00,,0814.8,5.00,0.00,25.2,24.0,00.0,34.0,27.2,14.5,0000.0,0001.83,0000.62,0000.45
2022-11-06 04:47:00,,0814.9,5.00,0.00,25.3,24.0,00.0,34.0,27.2,14.4,0000.0,0001.85,0000.62,0000.44
2022-11-06 04:48:00,,0814.8,5.00,0.00,25.3,24.0,00.0,34.0,27.2,14.4,0000.0,0001.81,0000.61,0000.43
2022-11-06 04:49:00,,0814.8,4.99,0.00,25.3,24.0,00.0,34.0,27.2,14.4,0000.0,0001.76,0000.59,0000.43
2022-11-06 04:50:00,,0814.8,5.00,0.00,25.3,24.0,00.0,34.0,27.2,14.5,0000.0,0001.75,0000.59,0000.43
2022-11-06 04:51:00,,0815.2,5.00,0.00,25.3,24.0,00.0,34.0,27.2,14.5,0000.0,0001.70,0000.60,0000.43
2022-11-06 04:52:00,,0814.9,5.00,0.00,25.3,24.0,00.0,34.0,27.2,14.5,0000.0,0001.68,0000.61,0000.44
2022-11-06 04:53:00,,0814.9,5.01,0.00,25.3,24.0,00.0,34.0,27.2,14.5,0000.0,0001.69,0000.61,0000.45
2022-11-06 04:54:00,,0814.9,5.01,0.00,25.3,24.0,00.0,34.0,27.2,14.6,0000.0,0001.72,0000.63,0000.45
2022-11-06 04:55:00,,0814.8,5.00,0.00,25.3,24.0,00.0,34.0,27.2,14.7,0000.0,0000.97,0000.62,0000.46
2022-11-06 04:56:00,,0814.8,4.99,0.00,25.3,24.0,00.0,34.0,27.2,14.5,0000.0,0001.00,0000.63,0000.46
2022-11-06 04:57:00,,0814.9,4.99,0.00,25.3,24.0,00.0,34.1,27.2,14.6,0000.0,0000.95,0000.62,0000.46
2022-11-06 04:58:00,,0814.9,5.00,0.00,25.3,24.0,00.0,34.1,27.2,14.6,0000.0,0000.99,0000.62,0000.47
2022-11-06 04:59:00,,0814.9,5.01,0.00,25.3,24.0,00.0,34.1,27.3,14.4,0000.0,0000.98,0000.62,0000.48
